[[{"header":{"parameterUnit":"m.s-1","parameterCategory":1,"la1":30.2991,"la2":30.254,"lo1":-89.0895,"lo2":-89.0444,"dx":0.0017,"dy":0.0017,"nx":28,"ny":28,"refTime":"2022-12-03T09:00:00:Z","depth":0,"parameterNumber":2,"parameterNumberName":"U-component_of_WINDS"},"data":[0,0,0,0,0,0,0,0,0,0,0,0,0,0,0,0,0,0,0,0,0,0,0,0,0,0,0,0,0,0,0,0,0,0,0,0,0,0,0,0,0,0,0,0,0,0,0,0,0,0,0,0,0,0,0,0,0,0,-1.1918,-1.1918,0,-1.1932,-1.1932,-1.1932,-1.1911,-1.191,-1.191,-1.1909,-1.1925,-1.1926,-1.1927,0,0,0,0,0,0,0,0,0,0,0,0,0,-1.1876,-1.1877,-1.1918,-1.1918,-1.1919,-1.1932,-1.1932,-1.1932,-1.1911,-1.191,-1.191,-1.1909,-1.1924,-1.1926,-1.1927,0,0,0,0,0,0,0,0,0,0,0,0,0,-1.1892,-1.1877,-1.1918,-1.191,-1.1909,-1.1932,-1.1932,-1.1932,-1.1912,-1.191,-1.1909,-1.1908,-1.1924,-1.1926,-1.1927,-1.196,0,0,-1.1932,-1.1933,0,0,0,0,0,0,0,0,-1.1891,-1.1894,-1.1911,-1.191,-1.191,-1.1919,-1.1923,-1.1942,-1.1912,-1.1911,-1.1909,-1.1908,-1.1924,-1.1925,-1.193,-1.196,-1.1961,-1.1932,-1.1933,-1.1934,-1.1935,0,0,0,0,0,0,0,-1.189,-1.1893,-1.1924,-1.1911,-1.191,-1.1906,-1.1907,-1.1926,-1.1923,-1.1911,-1.1909,-1.1911,-1.1923,-1.1929,-1.1931,-1.1961,-1.1932,-1.1934,-1.1935,-1.1936,-1.2019,-1.202,0,0,0,0,0,0,-1.189,-1.1892,-1.1923,-1.1924,-1.1898,-1.1907,-1.1909,-1.1917,-1.1923,-1.1923,-1.1912,-1.191,-1.1927,-1.1929,-1.1931,-1.1969,-1.1934,-1.1936,-1.1937,-1.2017,-1.2019,-1.202,0,0,0,0,0,0,-1.1889,-1.1893,-1.1923,-1.1908,-1.1911,-1.1909,-1.1919,-1.1918,-1.1923,-1.1924,-1.1923,-1.1918,-1.1926,-1.1929,-1.1953,-1.1969,-1.1936,-1.1938,-1.2016,-1.2018,-1.202,-1.2046,0,0,0,0,0,0,-1.1888,-1.1893,-1.1904,-1.1908,-1.1912,-1.1943,-1.192,-1.1919,-1.1926,-1.1924,-1.193,-1.1929,-1.1925,-1.195,-1.1954,-1.1971,-1.1939,-1.2015,-1.2017,-1.2019,-1.2043,-1.2048,-1.2052,0,0,0,0,0,-1.1887,-1.1912,-1.1905,-1.1909,-1.1927,-1.1944,-1.1947,-1.1941,-1.1927,-1.1939,-1.194,-1.1929,-1.1967,-1.1953,-1.1957,-1.1975,-1.2013,-1.2016,-1.2019,-1.2041,-1.2047,-1.2052,0,0,0,0,0,0,-1.191,-1.1912,-1.1905,-1.1932,-1.1938,-1.1941,-1.1955,-1.1947,-1.1958,-1.1955,-1.1948,-1.1949,-1.1975,-1.1977,-1.1961,-1.2007,-1.1988,-1.1992,-1.2004,-1.2009,-1.2014,-1.2012,-1.1941,0,0,0,0,0,-1.1918,-1.1932,-1.1933,-1.1957,-1.196,-1.1958,-1.1965,-1.196,-1.1966,-1.1969,-1.1971,-1.1978,-1.1992,-1.2001,-1.2013,-1.2044,-1.2045,-1.2058,-1.2063,-1.2067,-1.207,-1.2086,-1.2092,-1.2029,-1.2029,-1.2029,0,0,-1.1936,-1.1938,-1.1947,-1.1961,-1.1966,-1.198,-1.196,-1.1976,-1.1987,-1.1972,-1.1994,-1.1996,-1.2004,-1.2031,-1.2043,-1.2034,-1.2087,-1.207,-1.2073,-1.2074,-1.2089,-1.2095,-1.2101,-1.2031,-1.2031,-1.203,0,0,-1.1974,-1.1978,-1.1998,-1.2002,-1.2009,-1.2007,-1.2012,-1.2016,-1.2017,-1.2039,-1.2028,-1.2042,-1.2065,-1.2071,-1.2077,-1.2119,-1.2109,-1.2123,-1.2147,-1.2163,-1.2168,-1.2172,-1.2187,-1.2192,-1.2127,-1.2127,-1.2127,0,-1.1995,-1.2016,-1.2009,-1.2026,-1.2033,-1.2019,-1.204,-1.2045,-1.2056,-1.2061,-1.2051,-1.208,-1.2084,-1.2113,-1.2123,-1.2128,-1.2134,-1.2122,-1.2167,-1.2172,-1.2176,-1.219,-1.2195,-1.2128,-1.2128,-1.2128,-1.2128,0,-1.2041,-1.2056,-1.2071,-1.2081,-1.209,-1.2109,-1.2105,-1.2115,-1.211,-1.2109,-1.2132,-1.2137,-1.215,-1.2157,-1.2152,-1.2185,-1.2179,-1.2168,-1.215,-1.2183,-1.2196,-1.2201,-1.2131,-1.213,-1.213,-1.2129,0,0,-1.2093,-1.21,-1.2105,-1.211,-1.2117,-1.2128,-1.2147,-1.216,-1.2168,-1.2177,-1.2192,-1.2213,-1.2203,-1.221,-1.2206,-1.222,-1.2253,-1.2207,-1.2207,-1.2215,-1.2289,-1.2297,-1.2303,-1.2247,-1.2248,-1.2249,-1.2288,0,-1.2131,-1.2162,-1.2157,-1.2188,-1.2201,-1.2189,-1.2206,-1.2212,-1.2213,-1.2225,-1.2226,-1.224,-1.2226,-1.2231,-1.2244,-1.2246,-1.2267,-1.2243,-1.2261,-1.2262,-1.2259,-1.231,-1.2317,-1.2354,-1.2293,-1.2294,-1.2295,0,-1.2179,-1.2189,-1.222,-1.2225,-1.2231,-1.2245,-1.2256,-1.2269,-1.2276,-1.2275,-1.2284,-1.2277,-1.2297,-1.2278,-1.2305,-1.2289,-1.2297,-1.2299,-1.23,-1.23,-1.228,-1.2311,-1.2366,-1.2371,-1.2303,-1.2302,-1.2302,0,-1.2213,-1.2234,-1.2256,-1.226,-1.2267,-1.2277,-1.2281,-1.2287,-1.2295,-1.2305,-1.231,-1.2323,-1.233,-1.2341,-1.2338,-1.2325,-1.2366,-1.2347,-1.2366,-1.2366,-1.2374,-1.2373,-1.243,-1.2381,-1.2381,-1.238,-1.238,0,-1.2256,-1.2275,-1.2271,-1.2284,-1.2306,-1.2301,-1.2323,-1.2325,-1.2331,-1.2345,-1.2336,-1.235,-1.2346,-1.236,-1.2358,-1.2381,-1.2384,-1.2384,-1.2383,-1.2384,-1.2384,-1.2388,-1.2385,-1.2382,-1.2382,-1.2381,-1.2381,0,-1.2297,-1.2295,-1.2318,-1.2322,-1.2324,-1.234,-1.2344,-1.2357,-1.2357,-1.2375,-1.2378,-1.2379,-1.2395,-1.2393,-1.2411,-1.241,-1.2438,-1.2435,-1.2435,-1.2434,-1.2452,-1.245,-1.2513,-1.2521,-1.2467,-1.2468,-1.2468,0,-1.2323,-1.2338,-1.2344,-1.2353,-1.2356,-1.237,-1.2378,-1.2374,-1.2383,-1.2393,-1.2405,-1.2419,-1.2431,-1.2456,-1.2459,-1.2473,-1.2469,-1.249,-1.2471,-1.2472,-1.2469,-1.2467,-1.2469,-1.2494,-1.2494,-1.2495,-1.2495,0,-1.237,-1.2369,-1.238,-1.2392,-1.2402,-1.2411,-1.2419,-1.2426,-1.2423,-1.2434,-1.2449,-1.2458,-1.2476,-1.2491,-1.2504,-1.2509,-1.2502,-1.2501,-1.2506,-1.2507,-1.2506,-1.2506,-1.2444,-1.25,-1.2499,-1.2499,-1.2498,-1.2498,-1.2404,-1.2417,-1.2423,-1.2436,-1.2442,-1.245,-1.2462,-1.2464,-1.2477,-1.249,-1.2488,-1.2505,-1.2513,-1.253,-1.2536,-1.255,-1.2543,-1.255,-1.2552,-1.2553,-1.2555,-1.2505,-1.2553,-1.2553,-1.2553,-1.2553,-1.2552,0,-1.245,-1.2454,-1.2466,-1.2477,-1.2488,-1.248,-1.2489,-1.2499,-1.2514,-1.2522,-1.2533,-1.2551,-1.2566,-1.257,-1.2584,-1.2595,-1.2592,-1.2599,-1.2597,-1.2598,-1.2561,-1.2555,-1.2601,-1.2601,-1.2601,-1.2601,-1.2601,-1.2601,-1.2475,-1.2496,-1.2495,-1.2519,-1.2523,-1.2539,-1.2545,-1.2552,-1.2558,-1.2579,-1.259,-1.2593,-1.2599,-1.2614,-1.2628,-1.2629,-1.2634,-1.2642,-1.2641,-1.2606,-1.2601,-1.2596,-1.2591,-1.2643,-1.2643,-1.2677,-1.2678,-1.2678]},{"header":{"parameterUnit":"m.s-1","parameterCategory":1,"la1":30.2991,"la2":30.254,"lo1":-89.0895,"lo2":-89.0444,"dx":0.0017,"dy":0.0017,"nx":28,"ny":28,"refTime":"2022-12-03T09:00:00:Z","depth":0,"parameterNumber":3,"parameterNumberName":"V-component_of_WINDS"},"data":[0,0,0,0,0,0,0,0,0,0,0,0,0,0,0,0,0,0,0,0,0,0,0,0,0,0,0,0,0,0,0,0,0,0,0,0,0,0,0,0,0,0,0,0,0,0,0,0,0,0,0,0,0,0,0,0,0,0,-0.3192,-0.3192,0,-0.3243,-0.3244,-0.3244,-0.3264,-0.3264,-0.3264,-0.3263,-0.332,-0.3322,-0.3324,0,0,0,0,0,0,0,0,0,0,0,0,0,-0.3114,-0.3115,-0.3192,-0.3192,-0.3193,-0.3243,-0.3244,-0.3244,-0.3264,-0.3264,-0.3264,-0.3263,-0.332,-0.3322,-0.3324,0,0,0,0,0,0,0,0,0,0,0,0,0,-0.3155,-0.3115,-0.3191,-0.3209,-0.3211,-0.3243,-0.3244,-0.3245,-0.3264,-0.3264,-0.3263,-0.3263,-0.3319,-0.3322,-0.3324,-0.3344,0,0,-0.3332,-0.3333,0,0,0,0,0,0,0,0,-0.3152,-0.3158,-0.3205,-0.3207,-0.321,-0.3247,-0.3237,-0.3278,-0.3264,-0.3244,-0.3263,-0.3263,-0.3296,-0.3301,-0.3311,-0.3347,-0.335,-0.3332,-0.3333,-0.3335,-0.3335,0,0,0,0,0,0,0,-0.3149,-0.3155,-0.3212,-0.3206,-0.3209,-0.3215,-0.322,-0.3245,-0.3271,-0.3246,-0.3247,-0.3253,-0.3298,-0.3309,-0.3313,-0.335,-0.3332,-0.3334,-0.3336,-0.3337,-0.3406,-0.3406,0,0,0,0,0,0,-0.3143,-0.3153,-0.321,-0.3214,-0.318,-0.3216,-0.3223,-0.3235,-0.3271,-0.3276,-0.3253,-0.3253,-0.3304,-0.331,-0.3315,-0.3341,-0.3335,-0.3337,-0.3338,-0.3405,-0.3406,-0.3406,0,0,0,0,0,0,-0.3142,-0.3148,-0.3208,-0.3184,-0.3192,-0.3218,-0.3232,-0.3236,-0.3247,-0.3276,-0.3281,-0.3259,-0.3304,-0.3311,-0.3337,-0.3343,-0.3338,-0.334,-0.3405,-0.3406,-0.3406,-0.3393,0,0,0,0,0,0,-0.3139,-0.3147,-0.3155,-0.3184,-0.3193,-0.3228,-0.3232,-0.3238,-0.3251,-0.3252,-0.3283,-0.3288,-0.3305,-0.3333,-0.3339,-0.3346,-0.3342,-0.3405,-0.3405,-0.3406,-0.3393,-0.3393,-0.3393,0,0,0,0,0,-0.3136,-0.315,-0.3155,-0.3162,-0.3202,-0.3229,-0.3234,-0.3252,-0.3252,-0.326,-0.3278,-0.3287,-0.3341,-0.3335,-0.3342,-0.3351,-0.3404,-0.3405,-0.3406,-0.3393,-0.3393,-0.3393,0,0,0,0,0,0,-0.3123,-0.3154,-0.316,-0.3183,-0.3203,-0.3232,-0.3243,-0.3251,-0.3272,-0.3273,-0.3295,-0.3301,-0.3325,-0.3341,-0.3333,-0.3372,-0.3373,-0.3376,-0.3361,-0.3362,-0.3362,-0.3358,-0.3344,0,0,0,0,0,-0.3122,-0.314,-0.3167,-0.3185,-0.3194,-0.3216,-0.3229,-0.324,-0.3262,-0.3271,-0.3291,-0.3313,-0.3335,-0.3349,-0.3371,-0.3395,-0.3403,-0.3405,-0.3405,-0.3404,-0.3406,-0.342,-0.3422,-0.3409,-0.3409,-0.3409,0,0,-0.3122,-0.3141,-0.3151,-0.3182,-0.3199,-0.3218,-0.3224,-0.3243,-0.3258,-0.3274,-0.3299,-0.3315,-0.3341,-0.3366,-0.3378,-0.3379,-0.3411,-0.3405,-0.3405,-0.3407,-0.3421,-0.3423,-0.3424,-0.3409,-0.3409,-0.3409,0,0,-0.3131,-0.3147,-0.3163,-0.3179,-0.3204,-0.3219,-0.3222,-0.325,-0.326,-0.3285,-0.3298,-0.3316,-0.3353,-0.3371,-0.3385,-0.34,-0.3409,-0.3406,-0.3407,-0.342,-0.3421,-0.3422,-0.3428,-0.3429,-0.3408,-0.3408,-0.3408,0,-0.3128,-0.3155,-0.3171,-0.319,-0.3203,-0.3217,-0.3235,-0.325,-0.3281,-0.3291,-0.3291,-0.3338,-0.3356,-0.3386,-0.3389,-0.34,-0.3406,-0.3403,-0.3419,-0.3421,-0.3422,-0.3427,-0.3429,-0.3407,-0.3407,-0.3407,-0.3407,0,-0.315,-0.3169,-0.318,-0.3207,-0.3222,-0.324,-0.326,-0.3273,-0.3283,-0.3298,-0.3323,-0.3345,-0.3372,-0.3379,-0.339,-0.341,-0.341,-0.3415,-0.3417,-0.3422,-0.3428,-0.343,-0.3407,-0.3407,-0.3407,-0.3407,0,0,-0.3153,-0.3188,-0.3192,-0.3205,-0.3232,-0.3248,-0.3266,-0.329,-0.3301,-0.3322,-0.3339,-0.3369,-0.3373,-0.3389,-0.3402,-0.3414,-0.3424,-0.3417,-0.3418,-0.3418,-0.3448,-0.3444,-0.3446,-0.343,-0.343,-0.3431,-0.3446,0,-0.3166,-0.3199,-0.3213,-0.324,-0.3258,-0.3271,-0.3287,-0.3306,-0.3321,-0.3339,-0.3355,-0.3376,-0.338,-0.3389,-0.3401,-0.342,-0.343,-0.3419,-0.3447,-0.3448,-0.344,-0.3449,-0.3446,-0.3459,-0.3448,-0.3448,-0.3449,0,-0.3186,-0.3204,-0.3232,-0.3257,-0.3265,-0.3279,-0.3302,-0.3319,-0.3341,-0.3351,-0.3368,-0.3379,-0.3401,-0.34,-0.343,-0.3422,-0.3434,-0.3445,-0.3446,-0.345,-0.3449,-0.3454,-0.3464,-0.3466,-0.3452,-0.3452,-0.3452,0,-0.3185,-0.3218,-0.3238,-0.3249,-0.3278,-0.3288,-0.3301,-0.3322,-0.3336,-0.3356,-0.3365,-0.3389,-0.3402,-0.342,-0.3438,-0.3436,-0.3466,-0.3467,-0.3476,-0.3475,-0.3482,-0.3482,-0.3495,-0.3489,-0.3489,-0.3489,-0.3489,0,-0.3198,-0.3215,-0.3238,-0.3251,-0.327,-0.3287,-0.3306,-0.332,-0.3339,-0.3356,-0.3369,-0.3385,-0.3407,-0.3426,-0.344,-0.3463,-0.3469,-0.3478,-0.3482,-0.3477,-0.3476,-0.3486,-0.3486,-0.349,-0.3489,-0.3489,-0.3489,0,-0.3202,-0.3218,-0.3241,-0.3266,-0.3273,-0.3286,-0.3308,-0.3322,-0.3336,-0.3357,-0.3363,-0.3386,-0.3408,-0.3428,-0.3458,-0.3468,-0.3491,-0.3496,-0.3483,-0.3485,-0.3493,-0.3492,-0.3513,-0.3517,-0.3508,-0.3508,-0.3508,0,-0.3209,-0.3222,-0.3248,-0.3259,-0.3271,-0.3289,-0.3303,-0.332,-0.3333,-0.3359,-0.3369,-0.3392,-0.3412,-0.3448,-0.3468,-0.3491,-0.3497,-0.3502,-0.35,-0.3495,-0.3497,-0.3496,-0.3498,-0.3503,-0.3503,-0.3503,-0.3503,0,-0.3221,-0.3228,-0.3246,-0.3266,-0.3281,-0.3298,-0.3316,-0.3325,-0.3346,-0.336,-0.3383,-0.3397,-0.3427,-0.3451,-0.3476,-0.3491,-0.35,-0.3503,-0.3506,-0.3502,-0.3494,-0.3499,-0.3484,-0.3503,-0.3503,-0.3503,-0.3503,-0.3503,-0.3227,-0.3239,-0.3259,-0.3278,-0.3293,-0.3309,-0.3322,-0.3337,-0.3356,-0.338,-0.339,-0.3413,-0.3435,-0.3469,-0.3484,-0.3503,-0.3504,-0.3509,-0.351,-0.3511,-0.3511,-0.349,-0.3507,-0.3507,-0.3507,-0.3508,-0.3508,0,-0.324,-0.3253,-0.327,-0.3294,-0.3309,-0.3315,-0.3335,-0.3347,-0.3367,-0.3386,-0.3404,-0.343,-0.3452,-0.3473,-0.3497,-0.3508,-0.3513,-0.3514,-0.3513,-0.3517,-0.3508,-0.3503,-0.3509,-0.3509,-0.3509,-0.3509,-0.3509,-0.3509,-0.3248,-0.3268,-0.3278,-0.3306,-0.3319,-0.334,-0.3351,-0.3366,-0.3381,-0.3409,-0.3426,-0.3439,-0.346,-0.3485,-0.3506,-0.3511,-0.352,-0.3519,-0.3526,-0.3518,-0.3517,-0.3517,-0.3512,-0.3521,-0.3521,-0.3534,-0.3534,-0.3534]}]]